sat.trackr.live / text

‹ back to catalog

GPS BIIRM-1 (PRN 17)

NORAD 28874 · 2005-038A

PAYLOAD ACTIVE UNKNOWN

§ Identity

Operator
Country
US
Launch date
2005-09-26
Launch site
AFETR
Launch vehicle
Mass (kg)
RCS (m²)
3.27

Purposes: earth_obs, nav

External: N2YO · Heavens-Above · Gunter

§ Orbital elements

Epoch: 2026-09-15T02:33:44.771616Z

Period
717.99 min
Inclination
54.8110°
Eccentricity
0.0128760
Mean motion
2.00559579 rev/d
Perigee alt
19,840.6 km
Apogee alt
20,524.6 km
Semi-major
26,560.7 km
B*
0.0000e+0
RAAN
269.5407°
Arg perigee
297.5564°
Mean anomaly
70.3492°
Rev number
15,364

§ Raw data

GPS BIIRM-1 (PRN 17)1 28874U 05038A   26258.10676819 -.00000007  00000+0  00000+0 0  99922 28874  54.8110 269.5407 0128760 297.5564  70.3492  2.00559579153641

JSON: /api/v1/satellites/28874 · /tle

For live sub-satellite position, see the globe view (requires WebGL).

§ Visibility from observer

Set your observer location to see the next 7 days of passes ≥ 10°. The values pass through the URL so the page stays shareable.

No JS? Fill the form by hand. The geolocation button needs JavaScript.